[[{"header":{"parameterUnit":"m.s-1","parameterCategory":1,"la1":30.2991,"la2":30.254,"lo1":-89.0895,"lo2":-89.0444,"dy":0.0017,"dx":0.0017,"nx":28,"ny":28,"refTime":"2024-06-24T09:00:00:Z","depth":0,"parameterNumber":2,"parameterNumberName":"U-component_of_WINDS"},"data":[0,0,0,0,0,0,0,0,0,0,0,0,0,0,0,0,0,0,0,0,0,0,0,0,0,0,0,0,0,0,0,0,0,0,0,0,0,0,0,0,0,0,0,0,0,0,0,0,0,0,0,0,0,0,0,0,0,0,2.2674,2.2675,0,2.2753,2.2754,2.2755,2.2751,2.275,2.2749,2.2748,2.2833,2.2836,2.2839,0,0,0,0,0,0,0,0,0,0,0,0,0,2.2523,2.2526,2.2674,2.2675,2.2676,2.2753,2.2754,2.2755,2.2752,2.275,2.2749,2.2747,2.2832,2.2835,2.2839,0,0,0,0,0,0,0,0,0,0,0,0,0,2.2594,2.2527,2.2674,2.2683,2.2685,2.2753,2.2754,2.2756,2.2752,2.275,2.2748,2.2747,2.283,2.2835,2.284,2.2905,0,0,2.2855,2.2857,0,0,0,0,0,0,0,0,2.259,2.26,2.2681,2.2683,2.2685,2.2741,2.2732,2.2806,2.2752,2.2727,2.2748,2.2746,2.2804,2.2811,2.2829,2.2909,2.2913,2.2856,2.2859,2.2861,2.2862,0,0,0,0,0,0,0,2.2585,2.2596,2.2706,2.2682,2.2685,2.2685,2.2693,2.2746,2.2774,2.2729,2.2729,2.2738,2.2804,2.2825,2.2831,2.2914,2.2856,2.286,2.2863,2.2865,2.305,2.3052,0,0,0,0,0,0,2.2578,2.2592,2.2703,2.2708,2.2632,2.2689,2.2698,2.2725,2.2773,2.2779,2.2739,2.2737,2.2817,2.2826,2.2834,2.2913,2.2861,2.2865,2.2868,2.3048,2.3051,2.3053,0,0,0,0,0,0,2.2574,2.2588,2.27,2.265,2.2664,2.2693,2.2723,2.2727,2.2747,2.2781,2.2786,2.2754,2.2816,2.2827,2.2887,2.2915,2.2868,2.2872,2.3046,2.3049,2.3052,2.307,0,0,0,0,0,0,2.257,2.2586,2.261,2.2651,2.2667,2.275,2.2725,2.273,2.2755,2.2754,2.2797,2.2802,2.2816,2.288,2.2892,2.2921,2.2876,2.3044,2.3047,2.3051,2.3067,2.3073,2.3079,0,0,0,0,0,2.2565,2.2613,2.2612,2.2625,2.2697,2.2752,2.2761,2.2774,2.2758,2.2782,2.2804,2.2801,2.2911,2.2886,2.29,2.2931,2.3042,2.3046,2.3051,2.3064,2.3072,2.3078,0,0,0,0,0,0,2.2577,2.2619,2.2617,2.268,2.2712,2.2751,2.2782,2.2782,2.282,2.2817,2.2833,2.2843,2.2902,2.2923,2.2895,2.2996,2.2974,2.2982,2.298,2.2988,2.2993,2.2986,2.288,0,0,0,0,0,2.2586,2.2626,2.2661,2.2713,2.2729,2.2753,2.2777,2.2785,2.2819,2.2833,2.2859,2.2894,2.2936,2.2963,2.3004,2.3071,2.308,2.31,2.3105,2.311,2.3115,2.3152,2.316,2.3067,2.3067,2.3067,0,0,2.2607,2.2635,2.2659,2.2716,2.2742,2.2783,2.2765,2.2809,2.284,2.284,2.2897,2.2918,2.2958,2.3021,2.305,2.304,2.3144,2.3115,2.3119,2.3122,2.3157,2.3166,2.3174,2.307,2.307,2.3069,0,0,2.2666,2.2691,2.2737,2.2763,2.2802,2.2818,2.2829,2.2868,2.2881,2.2938,2.2939,2.2977,2.305,2.3078,2.3101,2.3172,2.317,2.3185,2.3214,2.3249,2.3257,2.3263,2.3287,2.3296,2.3191,2.3191,2.3191,0,2.2687,2.2748,2.2761,2.2805,2.283,2.2832,2.2878,2.2903,2.2954,2.2972,2.296,2.3051,2.3078,2.3147,2.3164,2.3184,2.3197,2.3179,2.3254,2.3261,2.3267,2.329,2.33,2.3192,2.3192,2.3192,2.3192,0,2.2771,2.2814,2.2846,2.2894,2.2923,2.2968,2.2989,2.3017,2.3023,2.304,2.3099,2.3131,2.3178,2.3196,2.3202,2.3267,2.3259,2.3251,2.3228,2.3277,2.3299,2.3308,2.3194,2.3194,2.3193,2.3193,0,0,2.2837,2.2892,2.2903,2.2925,2.2968,2.3002,2.3048,2.3093,2.3117,2.3153,2.3191,2.3253,2.3246,2.3273,2.3282,2.3314,2.3366,2.3302,2.3303,2.3311,2.3438,2.3442,2.3452,2.3366,2.3368,2.3369,2.3434,0,2.2899,2.2979,2.2992,2.3063,2.3102,2.3105,2.3145,2.3177,2.3195,2.3232,2.3252,2.3295,2.3283,2.3299,2.333,2.3353,2.3391,2.3349,2.3402,2.3404,2.339,2.3464,2.3468,2.3528,2.3443,2.3444,2.3445,0,2.2981,2.3017,2.3091,2.3129,2.3146,2.3182,2.3224,2.3259,2.3296,2.3307,2.3337,2.3343,2.3392,2.337,2.3437,2.3408,2.3431,2.3446,2.3449,2.3453,2.3426,2.3468,2.3547,2.3555,2.3459,2.3458,2.3457,0,2.302,2.3088,2.314,2.3159,2.3205,2.323,2.3251,2.3285,2.3311,2.3349,2.3366,2.341,2.3434,2.3468,2.3486,2.3468,2.3553,2.3531,2.3563,2.3562,2.3579,2.3577,2.3661,2.3597,2.3597,2.3597,2.3597,0,2.3086,2.313,2.3158,2.319,2.3241,2.3257,2.3307,2.3328,2.3359,2.3395,2.3402,2.3437,2.3459,2.3498,2.3513,2.3566,2.3578,2.3588,2.3591,2.3586,2.3585,2.36,2.3596,2.3599,2.3599,2.3598,2.3598,0,2.3136,2.3157,2.3214,2.3253,2.3264,2.33,2.3334,2.3366,2.3384,2.3431,2.3443,2.3472,2.3518,2.354,2.3597,2.3607,2.3667,2.3669,2.3654,2.3655,2.3685,2.3681,2.378,2.3793,2.3722,2.3723,2.3723,0,2.3176,2.321,2.3253,2.3278,2.3298,2.3338,2.3365,2.3383,2.3411,2.3455,2.3482,2.3527,2.3565,2.3638,2.3665,2.3709,2.371,2.3742,2.3717,2.3711,2.3709,2.3706,2.3709,2.3746,2.3747,2.3747,2.3748,0,2.3244,2.3252,2.3289,2.3331,2.3362,2.3395,2.3429,2.3449,2.3472,2.3503,2.3549,2.3578,2.3636,2.3681,2.3727,2.375,2.3753,2.3756,2.3765,2.3759,2.3749,2.3753,2.3664,2.3753,2.3752,2.3752,2.3752,2.3751,2.3289,2.3319,2.3354,2.3395,2.3422,2.3453,2.3485,2.3507,2.3545,2.3592,2.3602,2.3651,2.3687,2.3749,2.3773,2.3813,2.3805,2.3819,2.3822,2.3825,2.3826,2.3744,2.3821,2.3821,2.3821,2.3821,2.3821,0,2.3355,2.3378,2.3416,2.3462,2.3495,2.3494,2.3531,2.3559,2.3601,2.3635,2.3671,2.3724,2.3768,2.3799,2.3844,2.387,2.3872,2.3881,2.3878,2.3883,2.383,2.3817,2.3878,2.3878,2.3878,2.3878,2.3878,2.3878,2.3394,2.3444,2.3457,2.3522,2.3545,2.3591,2.3612,2.3641,2.3668,2.3726,2.3763,2.3782,2.3815,2.3863,2.3904,2.3912,2.3927,2.3936,2.3944,2.3893,2.3887,2.3881,2.3869,2.394,2.394,2.3993,2.3994,2.3994]},{"header":{"parameterUnit":"m.s-1","parameterCategory":1,"la1":30.2991,"la2":30.254,"lo1":-89.0895,"lo2":-89.0444,"dy":0.0017,"dx":0.0017,"nx":28,"ny":28,"refTime":"2024-06-24T09:00:00:Z","depth":0,"parameterNumber":3,"parameterNumberName":"V-component_of_WINDS"},"data":[0,0,0,0,0,0,0,0,0,0,0,0,0,0,0,0,0,0,0,0,0,0,0,0,0,0,0,0,0,0,0,0,0,0,0,0,0,0,0,0,0,0,0,0,0,0,0,0,0,0,0,0,0,0,0,0,0,0,3.4406,3.4407,0,3.4514,3.4515,3.4516,3.4545,3.4544,3.4544,3.4543,3.4646,3.4649,3.4652,0,0,0,0,0,0,0,0,0,0,0,0,0,3.4217,3.422,3.4406,3.4407,3.4408,3.4514,3.4515,3.4517,3.4545,3.4544,3.4544,3.4543,3.4645,3.4649,3.4652,0,0,0,0,0,0,0,0,0,0,0,0,0,3.4309,3.4222,3.4405,3.4436,3.4439,3.4513,3.4515,3.4517,3.4545,3.4544,3.4543,3.4543,3.4643,3.4648,3.4653,3.4702,0,0,3.4668,3.467,0,0,0,0,0,0,0,0,3.4304,3.4316,3.443,3.4434,3.4438,3.4515,3.4486,3.4579,3.4546,3.4505,3.4543,3.4542,3.4602,3.4611,3.4633,3.4707,3.4712,3.4669,3.4672,3.4674,3.4675,0,0,0,0,0,0,0,3.4298,3.4312,3.4448,3.4431,3.4436,3.4441,3.4453,3.4504,3.4557,3.4508,3.4511,3.4523,3.4604,3.4628,3.4635,3.4713,3.4668,3.4673,3.4676,3.4678,3.4834,3.4835,0,0,0,0,0,0,3.4287,3.4306,3.4445,3.4451,3.4368,3.4446,3.4459,3.4491,3.4557,3.4566,3.4524,3.4524,3.462,3.463,3.4639,3.4702,3.4674,3.4678,3.4681,3.4833,3.4834,3.4835,0,0,0,0,0,0,3.4283,3.4299,3.444,3.438,3.4398,3.445,3.4486,3.4494,3.4517,3.4569,3.4578,3.4539,3.462,3.4632,3.4687,3.4706,3.4681,3.4685,3.4831,3.4833,3.4835,3.4827,0,0,0,0,0,0,3.4277,3.4298,3.4318,3.438,3.4401,3.4489,3.4487,3.4497,3.4527,3.4528,3.4585,3.4594,3.462,3.468,3.4692,3.4712,3.4689,3.483,3.4832,3.4834,3.4826,3.4829,3.4831,0,0,0,0,0,3.4271,3.431,3.4319,3.4336,3.4429,3.449,3.4502,3.4534,3.4528,3.4549,3.4582,3.4592,3.4702,3.4685,3.4699,3.4721,3.4829,3.4831,3.4834,3.4825,3.4828,3.4831,0,0,0,0,0,0,3.4246,3.4319,3.433,3.4391,3.4434,3.4495,3.4521,3.4535,3.4579,3.4578,3.4613,3.4626,3.4679,3.4705,3.4685,3.4773,3.4765,3.4771,3.4754,3.4757,3.4759,3.4751,3.4693,0,0,0,0,0,3.4248,3.4294,3.4354,3.4402,3.4424,3.4469,3.4496,3.4518,3.4563,3.4581,3.4618,3.4659,3.4704,3.4731,3.4775,3.483,3.4843,3.4852,3.4854,3.4856,3.486,3.4892,3.4897,3.4844,3.4844,3.4844,0,0,3.4252,3.4297,3.4324,3.4398,3.4435,3.448,3.4484,3.4531,3.4564,3.4587,3.4642,3.4671,3.4719,3.4775,3.4801,3.4799,3.4878,3.486,3.486,3.4864,3.4895,3.49,3.4905,3.4846,3.4845,3.4845,0,0,3.4283,3.4322,3.4367,3.4404,3.446,3.449,3.4501,3.456,3.4581,3.4637,3.4656,3.4694,3.4769,3.4804,3.4831,3.4876,3.4886,3.4889,3.4901,3.4931,3.4935,3.4939,3.4956,3.4961,3.4893,3.4893,3.4893,0,3.428,3.4351,3.4387,3.4435,3.4467,3.4493,3.4538,3.4571,3.4636,3.4657,3.4654,3.475,3.4784,3.4849,3.486,3.4881,3.4893,3.4882,3.4932,3.4937,3.4941,3.4957,3.4963,3.4893,3.4893,3.4893,3.4893,0,3.4345,3.4394,3.4423,3.449,3.4525,3.457,3.4612,3.4643,3.4661,3.469,3.4747,3.479,3.4843,3.486,3.4876,3.4926,3.4923,3.4926,3.4919,3.4945,3.4961,3.4967,3.4893,3.4893,3.4893,3.4893,0,0,3.4362,3.445,3.446,3.4492,3.4556,3.4593,3.4639,3.4694,3.472,3.4764,3.4803,3.4867,3.4871,3.4901,3.4922,3.4949,3.4983,3.4948,3.495,3.4953,3.5041,3.5039,3.5045,3.499,3.4991,3.4993,3.5037,0,3.4401,3.4488,3.4523,3.4592,3.4638,3.4664,3.4704,3.4746,3.4776,3.4816,3.4847,3.4892,3.4893,3.4912,3.494,3.4973,3.5001,3.497,3.5025,3.5027,3.5013,3.5054,3.5051,3.5091,3.5043,3.5044,3.5045,0,3.4457,3.4507,3.4582,3.4642,3.4663,3.4699,3.4752,3.4792,3.484,3.4859,3.4895,3.4915,3.4962,3.4953,3.5018,3.4997,3.5021,3.504,3.5043,3.5049,3.5037,3.5061,3.5105,3.5111,3.5055,3.5054,3.5053,0,3.4463,3.4547,3.4604,3.4629,3.4701,3.4726,3.4756,3.4804,3.4835,3.4881,3.4902,3.4951,3.4978,3.5015,3.5047,3.5037,3.5109,3.5102,3.5125,3.5125,3.5139,3.5138,3.5188,3.5155,3.5154,3.5154,3.5154,0,3.4503,3.4547,3.4608,3.4642,3.4693,3.4732,3.478,3.4812,3.4855,3.4894,3.4918,3.4954,3.4995,3.5035,3.506,3.5111,3.5122,3.5138,3.5144,3.5136,3.5134,3.5153,3.5151,3.5156,3.5156,3.5155,3.5155,0,3.4517,3.4559,3.4622,3.4686,3.4703,3.4738,3.4792,3.4825,3.4856,3.4906,3.492,3.4967,3.5017,3.5053,3.5115,3.5132,3.5187,3.5192,3.5171,3.5174,3.5196,3.5193,3.5259,3.527,3.5229,3.5229,3.523,0,3.4539,3.4575,3.4644,3.4675,3.4706,3.4753,3.4787,3.4825,3.4858,3.4917,3.4943,3.4995,3.5039,3.5116,3.5155,3.5203,3.521,3.523,3.5217,3.5209,3.5211,3.5209,3.5212,3.5232,3.5232,3.5232,3.5232,0,3.4575,3.4595,3.4643,3.4699,3.4739,3.4784,3.4829,3.4851,3.4898,3.4933,3.4986,3.502,3.5087,3.5137,3.519,3.5218,3.5233,3.5236,3.5244,3.5236,3.5223,3.5231,3.5176,3.5234,3.5234,3.5234,3.5234,3.5234,3.4595,3.4628,3.4683,3.4736,3.4775,3.4817,3.4853,3.4889,3.4935,3.4994,3.5014,3.5068,3.5116,3.5189,3.5218,3.526,3.5259,3.527,3.5273,3.5275,3.5275,3.5217,3.5269,3.5269,3.5269,3.5269,3.5269,0,3.4632,3.4669,3.4718,3.4782,3.4824,3.4837,3.4888,3.4921,3.497,3.5015,3.5059,3.5119,3.5169,3.5213,3.5264,3.5289,3.5297,3.5301,3.5299,3.5306,3.5273,3.5261,3.5294,3.5294,3.5294,3.5294,3.5294,3.5294,3.4656,3.4715,3.4741,3.4818,3.4854,3.4911,3.4939,3.4977,3.5014,3.5081,3.5124,3.5154,3.5198,3.5253,3.5298,3.531,3.5327,3.533,3.5343,3.5311,3.5308,3.5305,3.5294,3.5334,3.5334,3.5372,3.5373,3.5373]}]]